This is the latest recevied weather packets stored in our database for station/object N8XHB. If no packets are shown the sender has not sent any weather packets the latest 10 day(s).
| Time | Temp. | Humidity | Pressure | Rain* | Wind** | Luminosity | Snow |
|---|---|---|---|---|---|---|---|
| 1778020273 | 11.11° C | 41% | 1008.7 hPa | 0 mm | - | 99 W/m² | - |
| 1778019969 | 11.11° C | 41% | 1008.6 hPa | 0 mm | - | 110 W/m² | - |
| 1778019665 | 11.11° C | 39% | 1008.7 hPa | 0 mm | - | 95 W/m² | - |
| 1778019363 | 11.11° C | 40% | 1008.7 hPa | 0 mm | - | 131 W/m² | - |
| 1778019059 | 11.11° C | 39% | 1008.6 hPa | 0 mm | - | 122 W/m² | - |
| 1778018757 | 11.11° C | 40% | 1008.4 hPa | 0 mm | - | 124 W/m² | - |
| 1778018454 | 11.11° C | 41% | 1008.7 hPa | 0 mm | - | 115 W/m² | - |
| 1778018152 | 11.11° C | 39% | 1008.8 hPa | 0 mm | - | 118 W/m² | - |
| 1778017850 | 11.11° C | 39% | 1008.6 hPa | 0 mm | - | 116 W/m² | - |
| 1778017548 | 11.11° C | 40% | 1008.7 hPa | 0 mm | - | 118 W/m² | - |
| 1778017244 | 11.11° C | 40% | 1008.8 hPa | 0 mm | - | 118 W/m² | - |
| 1778016942 | 11.11° C | 40% | 1009 hPa | 0 mm | - | 122 W/m² | - |
| 1778016638 | 11.11° C | 39% | 1008.7 hPa | 0 mm | - | 126 W/m² | - |
| 1778016335 | 11.11° C | 39% | 1008.8 hPa | 0 mm | - | 132 W/m² | - |
| 1778016032 | 11.11° C | 39% | 1008.7 hPa | 0 mm | - | 135 W/m² | - |
| 1778015729 | 11.67° C | 39% | 1008.6 hPa | 0 mm | - | 142 W/m² | - |
| 1778015426 | 11.67° C | 39% | 1008.8 hPa | 0 mm | - | 160 W/m² | - |
| 1778015122 | 11.67° C | 39% | 1008.7 hPa | 0 mm | - | 165 W/m² | - |
| 1778014820 | 11.67° C | 37% | 1008.8 hPa | 0 mm | - | 171 W/m² | - |
| 1778014518 | 11.67° C | 38% | 1008.6 hPa | 0 mm | - | 190 W/m² | - |
| 1778014214 | 11.67° C | 41% | 1008.7 hPa | 0 mm | - | 194 W/m² | - |
| 1778013912 | 12.22° C | 38% | 1008.8 hPa | 0 mm | - | 205 W/m² | - |
| 1778013609 | 12.22° C | 39% | 1008.7 hPa | 0 mm | - | 220 W/m² | - |
| 1778013306 | 12.78° C | 39% | 1008.9 hPa | 0 mm | - | 214 W/m² | - |
| 1778013002 | 12.78° C | 36% | 1008.9 hPa | 0 mm | - | 231 W/m² | - |
* Rain latest hour (hover to see other rain measurements)
** Current wind speed in m/s (hover to see current wind gust speed)